Location: Banff
(51.1667°N, 115.5667°W)
Time: 13:33:59
(UTC+00:00)

Vanguard 1 Rocket - Pass Details

Date: 01 December 2020
Orbit: 655 x 4222 km, 34.3° (Epoch: 23 January)

Event Time Altitude Azimuth Distance (km) Brightness Sun altitude
Rises 07:12:09 0° 212° (SSW) 7,905 - -60.5°
Reaches altitude 10° 07:18:09 10° 204° (SSW) 7,169 - -60.6°
Maximum altitude 07:39:10 35° 150° (SSE) 5,482 - -60.7°
Exits shadow 07:51:44 21° 108° (ESE) 5,773 11.3 -60.5°
Drops below altitude 10° 07:57:21 10° 95° (E) 6,296 11.6 -60.3°
Sets 08:02:03 0° 87° (E) 6,893 12.0 -60.1°
